Location: Goettingen
(51.5300°N, 9.9433°E)
Time: 07:31:27
(UTC+01:00)

ISS - Pass Details

Date: 14 January 2018
Orbit: 402 x 407 km, 51.6° (Epoch: 21 January)

Event Time Altitude Azimuth Distance (km) Brightness Sun altitude
Exits shadow 06:16:26 18° 202° (SSW) 1,077 -1.8 -18.5°
Drops below altitude 10° 06:18:13 10° 170° (S) 1,461 -0.7 -18.2°
Sets 06:20:41 0° 151° (SSE) 2,318 0.6 -17.8°
